| time (UTC) | temp F | wind direction | speed MPH | gust MPH | rain 1hr in | rain 24hr in | rain mn in | humidity % | barometer mb |
| 20260903020609 | 68 | 312 | 2.0 | 3.0 | 0.00 | 0.00 | 0.00 | 95 | 1017.5 |
| 20260903015032 | 68 | 288 | 1.0 | 2.0 | 0.00 | 0.00 | 0.00 | 95 | 1017.9 |
| 20260903013608 | 68 | 223 | 1.0 | 3.0 | 0.00 | 0.00 | 0.00 | 95 | 1017.6 |
| 20260903012052 | 68 | 295 | 1.0 | 4.0 | 0.00 | 0.00 | 0.00 | 95 | 1017.3 |
| 20260903010541 | 68 | 238 | 1.0 | 3.0 | 0.00 | 0.00 | 0.00 | 95 | 1017.1 |
| 20260903005048 | 68 | 285 | 3.0 | 5.0 | 0.00 | 0.00 | 0.00 | 95 | 1017.1 |
| 20260903003549 | 68 | 290 | 1.0 | 2.0 | 0.00 | 0.00 | 0.00 | 95 | 1017.7 |
| 20260903002103 | 68 | 292 | 1.0 | 4.0 | 0.00 | 0.00 | 0.00 | 95 | 1017.7 |
| 20260903000546 | 68 | 275 | 0.0 | 2.0 | 0.00 | 0.00 | 0.00 | 95 | 1017.5 |
| 20260902235028 | 68 | 279 | 0.0 | 2.0 | 0.00 | 0.00 | 0.00 | 95 | 1017.2 |
| 20260902233558 | 68 | 304 | 0.0 | 1.0 | 0.00 | 0.00 | 0.00 | 95 | 1017.0 |
| 20260902232027 | 68 | 302 | 0.0 | 2.0 | 0.00 | 0.00 | 0.00 | 95 | 1017.1 |
| 20260902230536 | 68 | 297 | 0.0 | 2.0 | 0.00 | 0.00 | 0.00 | 95 | 1016.9 |
| 20260902225036 | 68 | 275 | 1.0 | 2.0 | 0.00 | 0.00 | 0.00 | 95 | 1017.3 |
| 20260902223526 | 68 | 294 | 0.0 | 3.0 | 0.00 | 0.00 | 0.00 | 94 | 1017.6 |
| 20260902222036 | 69 | 265 | 0.0 | 5.0 | 0.00 | 0.00 | 0.00 | 94 | 1017.6 |
| 20260902220547 | 69 | 287 | 1.0 | 3.0 | 0.00 | 0.00 | 0.00 | 94 | 1017.7 |
| 20260902215052 | 69 | 275 | 0.0 | 2.0 | 0.00 | 0.00 | 0.00 | 94 | 1017.7 |
| 20260902213559 | 69 | 279 | 1.0 | 3.0 | 0.00 | 0.00 | 0.00 | 94 | 1017.8 |
| 20260902212027 | 69 | 159 | 1.0 | 2.0 | 0.00 | 0.00 | 0.00 | 94 | 1017.5 |
| 20260902210538 | 69 | 342 | 0.0 | 2.0 | 0.00 | 0.00 | 0.00 | 94 | 1017.6 |
| 20260902205039 | 69 | 15 | 0.0 | 0.0 | 0.00 | 0.00 | 0.00 | 94 | 1017.5 |
| 20260902203549 | 69 | 228 | 0.0 | 1.0 | 0.00 | 0.00 | 0.00 | 94 | 1017.7 |
| 20260902202058 | 69 | 21 | 1.0 | 4.0 | 0.00 | 0.00 | 0.00 | 94 | 1017.7 |
| 20260902200526 | 69 | 312 | 0.0 | 2.0 | 0.00 | 0.00 | 0.00 | 94 | 1017.7 |
| 20260902195051 | 69 | 242 | 0.0 | 3.0 | 0.00 | 0.00 | 0.00 | 95 | 1018.1 |
| 20260902193538 | 69 | 324 | 1.0 | 5.0 | 0.00 | 0.00 | 0.00 | 95 | 1017.5 |
| 20260902192028 | 69 | 220 | 1.0 | 4.0 | 0.00 | 0.00 | 0.00 | 95 | 1017.8 |
| 20260902190553 | 69 | 283 | 0.0 | 2.0 | 0.00 | 0.00 | 0.00 | 95 | 1018.0 |
| 20260902185031 | 69 | 331 | 0.0 | 2.0 | 0.00 | 0.00 | 0.00 | 95 | 1018.1 |
| 20260902183544 | 69 | 51 | 0.0 | 3.0 | 0.00 | 0.00 | 0.00 | 95 | 1018.5 |
| 20260902182034 | 69 | 283 | 1.0 | 5.0 | 0.00 | 0.00 | 0.00 | 95 | 1019.0 |
| 20260902180545 | 69 | 290 | 1.0 | 2.0 | 0.00 | 0.00 | 0.00 | 95 | 1018.9 |
| 20260902175027 | 69 | 273 | 1.0 | 3.0 | 0.00 | 0.00 | 0.00 | 95 | 1019.1 |
| 20260902173536 | 69 | 260 | 1.0 | 3.0 | 0.00 | 0.00 | 0.00 | 94 | 1019.0 |
| 20260902172044 | 69 | 302 | 0.0 | 2.0 | 0.00 | 0.00 | 0.00 | 95 | 1019.0 |
| 20260902170537 | 69 | 287 | 1.0 | 2.0 | 0.00 | 0.00 | 0.00 | 94 | 1018.9 |
| 20260902165059 | 69 | 331 | 1.0 | 3.0 | 0.00 | 0.00 | 0.00 | 94 | 1018.9 |
| 20260902163528 | 69 | 275 | 1.0 | 4.0 | 0.00 | 0.00 | 0.00 | 94 | 1019.1 |
| 20260902162040 | 69 | 215 | 4.0 | 7.0 | 0.00 | 0.00 | 0.00 | 93 | 1018.9 |
| 20260902160549 | 69 | 332 | 0.0 | 2.0 | 0.00 | 0.00 | 0.00 | 94 | 1019.1 |
| 20260902155025 | 69 | 15 | 0.0 | 2.0 | 0.00 | 0.00 | 0.00 | 94 | 1019.2 |
| 20260902153535 | 69 | 301 | 0.0 | 2.0 | 0.00 | 0.00 | 0.00 | 94 | 1019.2 |
| 20260902152041 | 69 | 260 | 0.0 | 2.0 | 0.00 | 0.00 | 0.00 | 94 | 1019.3 |
| 20260902150527 | 69 | 324 | 1.0 | 3.0 | 0.00 | 0.00 | 0.00 | 93 | 1019.2 |
| 20260902145031 | 69 | 19 | 0.0 | 0.0 | 0.00 | 0.03 | 0.00 | 93 | 1019.3 |
| 20260902143536 | 69 | 11 | 0.0 | 3.0 | 0.00 | 0.03 | 0.00 | 93 | 1019.7 |
| 20260902142033 | 69 | 265 | 1.0 | 4.0 | 0.00 | 0.03 | 0.00 | 93 | 1019.6 |
| 20260902140542 | 69 | 279 | 1.0 | 4.0 | 0.00 | 0.03 | 0.00 | 93 | 1019.2 |
| 20260902135047 | 69 | 25 | 1.0 | 2.0 | 0.00 | 0.03 | 0.00 | 94 | 1018.9 |
| 20260902133536 | 68 | 13 | 1.0 | 2.0 | 0.00 | 0.03 | 0.00 | 94 | 1019.0 |
| 20260902132042 | 68 | 248 | 0.0 | 2.0 | 0.00 | 0.03 | 0.00 | 94 | 1018.9 |
| 20260902130530 | 68 | 200 | 0.0 | 2.0 | 0.00 | 0.03 | 0.00 | 94 | 1018.8 |
| 20260902125054 | 68 | 81 | 0.0 | 2.0 | 0.00 | 0.03 | 0.00 | 94 | 1018.9 |
| 20260902123543 | 68 | 320 | 0.0 | 2.0 | 0.00 | 0.03 | 0.00 | 95 | 1018.7 |
| 20260902122030 | 68 | 17 | 0.0 | 0.0 | 0.00 | 0.03 | 0.00 | 95 | 1018.7 |
| 20260902120540 | 68 | 169 | 0.0 | 0.0 | 0.00 | 0.03 | 0.00 | 95 | 1018.6 |
| 20260902115043 | 68 | 169 | 0.0 | 3.0 | 0.00 | 0.03 | 0.00 | 94 | 1018.7 |
| 20260902113527 | 68 | 90 | 0.0 | 0.0 | 0.00 | 0.03 | 0.00 | 95 | 1018.7 |
| 20260902112036 | 68 | 96 | 0.0 | 0.0 | 0.00 | 0.03 | 0.00 | 94 | 1018.6 |
| 20260902110543 | 69 | 96 | 0.0 | 1.0 | 0.00 | 0.03 | 0.00 | 94 | 1018.3 |
| 20260902105048 | 69 | 96 | 0.0 | 1.0 | 0.00 | 0.03 | 0.00 | 94 | 1018.2 |
| 20260902103600 | 69 | 150 | 0.0 | 0.0 | 0.00 | 0.03 | 0.00 | 94 | 1018.1 |
| 20260902102029 | 69 | 150 | 0.0 | 0.0 | 0.00 | 0.03 | 0.00 | 94 | 1018.1 |
| 20260902100535 | 69 | 150 | 0.0 | 1.0 | 0.00 | 0.03 | 0.00 | 94 | 1018.0 |
| 20260902095053 | 69 | 269 | 0.0 | 1.0 | 0.00 | 0.03 | 0.00 | 94 | 1018.0 |
| 20260902093542 | 69 | 300 | 0.0 | 0.0 | 0.00 | 0.03 | 0.00 | 95 | 1018.0 |
| 20260902092052 | 69 | 300 | 0.0 | 1.0 | 0.00 | 0.03 | 0.00 | 95 | 1018.0 |
| 20260902090600 | 70 | 315 | 0.0 | 0.0 | 0.00 | 0.03 | 0.00 | 95 | 1017.7 |
| 20260902085043 | 70 | 315 | 0.0 | 0.0 | 0.00 | 0.03 | 0.00 | 96 | 1017.6 |
| 20260902083530 | 70 | 214 | 0.0 | 1.0 | 0.00 | 0.03 | 0.00 | 96 | 1017.3 |
| 20260902082043 | 70 | 7 | 0.0 | 3.0 | 0.00 | 0.03 | 0.00 | 96 | 1017.2 |
| 20260902080530 | 71 | 352 | 0.0 | 0.0 | 0.00 | 0.03 | 0.00 | 96 | 1017.1 |
| 20260902075032 | 71 | 352 | 0.0 | 0.0 | 0.00 | 0.03 | 0.00 | 96 | 1016.9 |
| 20260902073541 | 72 | 352 | 0.0 | 1.0 | 0.00 | 0.03 | 0.00 | 96 | 1016.9 |
| 20260902072031 | 72 | 352 | 0.0 | 2.0 | 0.00 | 0.03 | 0.00 | 96 | 1016.8 |
| 20260902070541 | 72 | 354 | 0.0 | 1.0 | 0.00 | 0.03 | 0.00 | 96 | 1016.8 |
| 20260902065036 | 72 | 335 | 0.0 | 1.0 | 0.00 | 0.03 | 0.00 | 96 | 1016.8 |
| 20260902063540 | 72 | 15 | 1.0 | 2.0 | 0.00 | 0.03 | 0.00 | 96 | 1016.6 |
| 20260902062047 | 72 | 227 | 0.0 | 1.0 | 0.00 | 0.03 | 0.00 | 96 | 1017.0 |
| 20260902060550 | 72 | 228 | 0.0 | 2.0 | 0.00 | 0.03 | 0.00 | 96 | 1017.1 |
| 20260902055054 | 73 | 319 | 0.0 | 3.0 | 0.00 | 0.03 | 0.00 | 96 | 1017.1 |
| 20260902053543 | 73 | 303 | 0.0 | 4.0 | 0.00 | 0.03 | 0.00 | 96 | 1017.0 |
| 20260902052032 | 73 | 313 | 0.0 | 1.0 | 0.00 | 0.03 | 0.00 | 96 | 1016.9 |
| 20260902050543 | 73 | 313 | 0.0 | 1.0 | 0.00 | 0.03 | 0.00 | 96 | 1016.9 |
| 20260902045044 | 73 | 314 | 0.0 | 5.0 | 0.00 | 0.03 | 0.00 | 97 | 1016.9 |
| 20260902043535 | 72 | 321 | 2.0 | 4.0 | 0.00 | 0.03 | 0.00 | 97 | 1016.7 |
| 20260902042044 | 72 | 279 | 1.0 | 3.0 | 0.00 | 0.03 | 0.00 | 96 | 1016.7 |
| 20260902040553 | 72 | 354 | 0.0 | 0.0 | 0.00 | 0.03 | 0.00 | 96 | 1016.6 |
| 20260902035031 | 72 | 354 | 0.0 | 0.0 | 0.00 | 0.03 | 0.03 | 96 | 1016.6 |
| 20260902033541 | 72 | 13 | 0.0 | 0.0 | 0.00 | 0.03 | 0.03 | 96 | 1016.1 |
| 20260902032029 | 71 | 34 | 0.0 | 1.0 | 0.00 | 0.03 | 0.03 | 96 | 1016.0 |
| 20260902030538 | 71 | 34 | 0.0 | 1.0 | 0.00 | 0.03 | 0.03 | 95 | 1016.0 |
| 20260902025057 | 71 | 34 | 0.0 | 0.0 | 0.00 | 0.03 | 0.03 | 95 | 1015.2 |
| 20260902023544 | 72 | 34 | 0.0 | 0.0 | 0.00 | 0.03 | 0.03 | 94 | 1015.0 |
| 20260902022033 | 72 | 34 | 0.0 | 0.0 | 0.00 | 0.03 | 0.03 | 94 | 1014.9 |